| time (UTC) | temp F | wind direction | speed MPH | gust MPH | rain 1hr in | rain 24hr in | rain mn in | humidity % | barometer mb |
| 20260507000832 | 56 | 298 | 0.0 | 0.0 | 0.00 | 0.58 | 0.27 | 49 | 1012.7 |
| 20260506235800 | 56 | 298 | 0.0 | 0.0 | 0.00 | 0.59 | 0.27 | 49 | 1012.7 |
| 20260506232521 | 57 | 345 | 0.0 | 0.0 | 0.00 | 0.63 | 0.27 | 47 | 1012.6 |
| 20260506231454 | 58 | 32 | 0.0 | 0.0 | 0.00 | 0.64 | 0.27 | 46 | 1012.5 |
| 20260506230512 | 58 | 283 | 0.0 | 0.0 | 0.00 | 0.67 | 0.27 | 46 | 1012.6 |
| 20260506225512 | 58 | 281 | 0.0 | 0.0 | 0.00 | 0.68 | 0.27 | 46 | 1012.7 |
| 20260506224534 | 58 | 45 | 0.0 | 0.0 | 0.00 | 0.71 | 0.27 | 46 | 1013.0 |
| 20260506223525 | 58 | 255 | 0.0 | 0.0 | 0.00 | 0.76 | 0.27 | 47 | 1012.9 |
| 20260506222514 | 58 | 255 | 0.0 | 0.0 | 0.00 | 0.77 | 0.27 | 45 | 1013.0 |
| 20260506221523 | 58 | 254 | 0.0 | 0.0 | 0.00 | 0.77 | 0.27 | 46 | 1013.1 |
| 20260506220514 | 58 | 288 | 0.0 | 0.0 | 0.00 | 0.79 | 0.27 | 45 | 1013.0 |
| 20260506214407 | 58 | 243 | 0.0 | 0.0 | 0.00 | 0.81 | 0.27 | 43 | 1012.8 |
| 20260506213423 | 58 | 253 | 0.0 | 0.0 | 0.00 | 0.81 | 0.27 | 42 | 1012.7 |
| 20260506212414 | 59 | 227 | 0.0 | 0.0 | 0.00 | 0.81 | 0.27 | 43 | 1012.6 |
| 20260506211356 | 59 | 257 | 0.0 | 2.0 | 0.00 | 0.81 | 0.27 | 43 | 1012.4 |
| 20260506210347 | 58 | 259 | 0.0 | 0.0 | 0.00 | 0.82 | 0.27 | 47 | 1012.5 |
| 20260506205318 | 58 | 271 | 0.0 | 0.0 | 0.00 | 0.83 | 0.27 | 46 | 1012.3 |
| 20260506204323 | 58 | 295 | 0.0 | 0.0 | 0.00 | 0.84 | 0.27 | 46 | 1012.4 |
| 20260506203255 | 59 | 245 | 0.0 | 2.0 | 0.00 | 0.86 | 0.27 | 45 | 1012.4 |
| 20260506201113 | 59 | 298 | 0.0 | 0.0 | 0.00 | 0.89 | 0.27 | 45 | 1012.4 |
| 20260506200047 | 59 | 273 | 0.0 | 0.0 | 0.00 | 0.93 | 0.27 | 46 | 1012.2 |
| 20260506195030 | 59 | 252 | 0.0 | 0.0 | 0.00 | 0.93 | 0.27 | 45 | 1012.1 |
| 20260506194022 | 60 | 232 | 0.0 | 0.0 | 0.00 | 0.93 | 0.27 | 47 | 1012.1 |
| 20260506193039 | 59 | 252 | 0.0 | 0.0 | 0.00 | 0.93 | 0.27 | 49 | 1012.1 |
| 20260506192059 | 59 | 30 | 0.0 | 0.0 | 0.00 | 0.93 | 0.27 | 45 | 1012.2 |
| 20260506191113 | 59 | 231 | 0.0 | 0.0 | 0.00 | 0.93 | 0.27 | 46 | 1012.2 |
| 20260506190116 | 60 | 251 | 0.0 | 0.0 | 0.00 | 0.93 | 0.27 | 45 | 1012.2 |
| 20260506185141 | 61 | 265 | 0.0 | 0.0 | 0.00 | 0.93 | 0.27 | 44 | 1012.1 |
| 20260506184115 | 62 | 265 | 0.0 | 0.0 | 0.00 | 0.93 | 0.27 | 44 | 1012.0 |
| 20260506182027 | 62 | 271 | 0.0 | 0.0 | 0.00 | 0.93 | 0.27 | 47 | 1012.0 |
| 20260506180958 | 62 | 306 | 0.0 | 0.0 | 0.00 | 0.93 | 0.27 | 48 | 1012.1 |
| 20260506174922 | 61 | 232 | 0.0 | 0.0 | 0.00 | 0.93 | 0.27 | 48 | 1012.3 |
| 20260506171635 | 60 | 25 | 0.0 | 0.0 | 0.00 | 0.93 | 0.27 | 52 | 1012.4 |
| 20260506165558 | 61 | 78 | 0.0 | 0.0 | 0.00 | 0.93 | 0.27 | 51 | 1012.3 |
| 20260506164547 | 61 | 253 | 0.0 | 0.0 | 0.00 | 0.93 | 0.27 | 51 | 1012.1 |
| 20260506163548 | 60 | 277 | 0.0 | 0.0 | 0.00 | 0.93 | 0.27 | 52 | 1012.1 |
| 20260506162532 | 60 | 259 | 0.0 | 0.0 | 0.00 | 0.93 | 0.27 | 50 | 1012.3 |
| 20260506161546 | 59 | 262 | 0.0 | 0.0 | 0.00 | 0.93 | 0.27 | 54 | 1012.4 |
| 20260506160552 | 59 | 261 | 0.0 | 0.0 | 0.00 | 0.93 | 0.27 | 55 | 1012.2 |
| 20260506154432 | 58 | 252 | 0.0 | 0.0 | 0.00 | 0.93 | 0.27 | 58 | 1012.4 |
| 20260506153429 | 57 | 259 | 0.0 | 0.0 | 0.00 | 0.93 | 0.27 | 58 | 1012.2 |
| 20260506152412 | 56 | 275 | 0.0 | 0.0 | 0.00 | 0.93 | 0.27 | 58 | 1011.8 |
| 20260506151412 | 56 | 248 | 0.0 | 0.0 | 0.00 | 0.93 | 0.27 | 63 | 1011.6 |
| 20260506150415 | 55 | 347 | 0.0 | 0.0 | 0.00 | 0.93 | 0.27 | 66 | 1011.5 |
| 20260506145414 | 54 | 42 | 0.0 | 0.0 | 0.00 | 0.93 | 0.27 | 65 | 1011.3 |
| 20260506144340 | 54 | 252 | 0.0 | 0.0 | 0.00 | 0.93 | 0.27 | 65 | 1011.6 |
| 20260506141131 | 51 | 290 | 0.0 | 0.0 | 0.00 | 0.93 | 0.27 | 73 | 1011.4 |
| 20260506140117 | 50 | 272 | 0.0 | 0.0 | 0.00 | 0.93 | 0.27 | 74 | 1011.3 |
| 20260506133908 | 49 | 303 | 0.0 | 0.0 | 0.00 | 0.92 | 0.26 | 78 | 1011.0 |
| 20260506132909 | 49 | 291 | 0.0 | 0.0 | 0.00 | 0.92 | 0.26 | 79 | 1010.8 |
| 20260506131921 | 48 | 291 | 0.0 | 0.0 | 0.00 | 0.92 | 0.26 | 80 | 1010.8 |
| 20260506130902 | 48 | 294 | 0.0 | 0.0 | 0.00 | 0.92 | 0.26 | 81 | 1010.7 |
| 20260506124735 | 47 | 300 | 0.0 | 0.0 | 0.00 | 0.92 | 0.26 | 83 | 1010.2 |
| 20260506123758 | 47 | 297 | 0.0 | 0.0 | 0.00 | 0.92 | 0.26 | 83 | 1010.5 |
| 20260506122757 | 47 | 296 | 0.0 | 0.0 | 0.00 | 0.92 | 0.26 | 83 | 1010.5 |
| 20260506121743 | 47 | 298 | 0.0 | 0.0 | 0.00 | 0.92 | 0.26 | 84 | 1010.3 |
| 20260506120734 | 46 | 298 | 0.0 | 0.0 | 0.00 | 0.92 | 0.26 | 84 | 1009.9 |
| 20260506115757 | 46 | 298 | 0.0 | 0.0 | 0.00 | 0.92 | 0.26 | 84 | 1009.5 |
| 20260506114804 | 46 | 296 | 0.0 | 0.0 | 0.00 | 0.92 | 0.26 | 84 | 1009.2 |
| 20260506112628 | 46 | 282 | 0.0 | 0.0 | 0.00 | 0.92 | 0.26 | 84 | 1009.1 |
| 20260506111603 | 45 | 282 | 0.0 | 0.0 | 0.00 | 0.92 | 0.26 | 84 | 1009.4 |
| 20260506105436 | 46 | 355 | 0.0 | 0.0 | 0.00 | 0.92 | 0.26 | 85 | 1008.6 |
| 20260506104416 | 46 | 355 | 0.0 | 0.0 | 0.00 | 0.93 | 0.26 | 85 | 1008.3 |
| 20260506103410 | 46 | 0 | 0.0 | 0.0 | 0.00 | 0.93 | 0.26 | 85 | 1007.9 |
| 20260506102410 | 46 | 10 | 0.0 | 0.0 | 0.00 | 0.94 | 0.26 | 86 | 1008.1 |
| 20260506100258 | 46 | 27 | 0.0 | 0.0 | 0.00 | 0.96 | 0.26 | 86 | 1008.0 |
| 20260506095236 | 46 | 26 | 0.0 | 0.0 | 0.00 | 0.97 | 0.26 | 86 | 1007.9 |
| 20260506094252 | 46 | 27 | 0.0 | 0.0 | 0.00 | 0.97 | 0.26 | 86 | 1007.5 |
| 20260506093218 | 46 | 27 | 0.0 | 0.0 | 0.00 | 0.98 | 0.26 | 86 | 1006.9 |
| 20260506092143 | 46 | 27 | 0.0 | 0.0 | 0.00 | 0.99 | 0.26 | 86 | 1007.1 |
| 20260506091126 | 46 | 25 | 0.0 | 0.0 | 0.00 | 1.01 | 0.26 | 86 | 1007.4 |
| 20260506090148 | 46 | 25 | 0.0 | 0.0 | 0.00 | 1.02 | 0.26 | 86 | 1007.2 |
| 20260506085114 | 46 | 45 | 0.0 | 0.0 | 0.00 | 1.02 | 0.26 | 86 | 1007.2 |
| 20260506084118 | 46 | 32 | 0.0 | 0.0 | 0.00 | 1.02 | 0.26 | 86 | 1007.2 |
| 20260506083052 | 46 | 29 | 0.0 | 0.0 | 0.00 | 1.02 | 0.26 | 86 | 1007.3 |
| 20260506080936 | 46 | 300 | 0.0 | 0.0 | 0.00 | 1.01 | 0.25 | 86 | 1007.2 |
| 20260506072707 | 47 | 5 | 0.0 | 0.0 | 0.00 | 0.97 | 0.21 | 86 | 1007.1 |
| 20260506071719 | 47 | 17 | 0.0 | 0.0 | 0.00 | 0.97 | 0.21 | 86 | 1007.0 |
| 20260506070719 | 47 | 208 | 0.0 | 0.0 | 0.00 | 0.97 | 0.21 | 86 | 1006.7 |
| 20260506061738 | 47 | 32 | 0.0 | 0.0 | 0.10 | 0.95 | 0.19 | 86 | 1006.5 |
| 20260506060749 | 47 | 5 | 0.0 | 0.0 | 0.13 | 0.93 | 0.17 | 86 | 1006.7 |
| 20260506050519 | 50 | 310 | 0.0 | 0.0 | 0.10 | 0.83 | 0.06 | 86 | 1007.0 |
| 20260506044434 | 50 | 22 | 0.0 | 0.0 | 0.04 | 0.81 | 0.05 | 86 | 1006.6 |
| 20260506043449 | 50 | 310 | 0.0 | 0.0 | 0.09 | 0.80 | 0.04 | 86 | 1006.4 |
| 20260506042416 | 51 | 300 | 0.0 | 0.0 | 0.08 | 0.78 | 0.03 | 86 | 1006.7 |
| 20260506041357 | 51 | 346 | 0.0 | 0.0 | 0.00 | 0.76 | 0.01 | 86 | 1006.7 |
| 20260506040402 | 51 | 28 | 0.0 | 0.0 | 0.00 | 0.76 | 0.00 | 86 | 1006.4 |
| 20260506035332 | 51 | 34 | 0.0 | 0.0 | 0.00 | 0.76 | 0.76 | 86 | 1006.2 |
| 20260506034350 | 51 | 32 | 0.0 | 0.0 | 0.00 | 0.76 | 0.76 | 86 | 1006.1 |
| 20260506031313 | 51 | 91 | 0.0 | 0.0 | 0.00 | 0.74 | 0.75 | 86 | 1006.2 |
| 20260506025135 | 52 | 322 | 0.0 | 0.0 | 0.06 | 0.74 | 0.75 | 85 | 1006.6 |
| 20260506024110 | 52 | 342 | 0.0 | 0.0 | 0.06 | 0.73 | 0.74 | 85 | 1006.9 |
| 20260506023125 | 52 | 328 | 0.0 | 0.0 | 0.12 | 0.72 | 0.73 | 85 | 1007.0 |
| 20260506022147 | 52 | 317 | 0.0 | 0.0 | 0.17 | 0.71 | 0.71 | 85 | 1007.1 |
| 20260506021157 | 53 | 331 | 0.0 | 0.0 | 0.08 | 0.67 | 0.69 | 85 | 1007.2 |
| 20260506020151 | 53 | 251 | 0.0 | 0.0 | 0.06 | 0.66 | 0.67 | 84 | 1007.0 |
| 20260506015141 | 54 | 272 | 0.0 | 0.0 | 0.06 | 0.65 | 0.67 | 84 | 1006.7 |
| 20260506014147 | 54 | 271 | 0.0 | 0.0 | 0.12 | 0.65 | 0.65 | 84 | 1006.4 |
| 20260506012040 | 57 | 249 | 0.0 | 0.0 | 0.16 | 0.59 | 0.61 | 84 | 1006.4 |
| 20260506011034 | 59 | 252 | 0.0 | 0.0 | 0.25 | 0.56 | 0.57 | 85 | 1006.2 |
| 20260506010011 | 61 | 260 | 0.0 | 0.0 | 0.10 | 0.53 | 0.54 | 86 | 1006.2 |
| 20260506004957 | 61 | 263 | 0.0 | 0.0 | 0.06 | 0.52 | 0.52 | 86 | 1005.9 |
| 20260506003947 | 61 | 263 | 0.0 | 0.0 | 0.10 | 0.51 | 0.51 | 86 | 1005.7 |
| 20260506002959 | 61 | 263 | 0.0 | 0.0 | 0.10 | 0.49 | 0.49 | 86 | 1005.7 |